Regional Weather Roundup
Issued by NWS

Home | Current Version | Previous Version | Text Only | Print | Product List | Glossary On
Versions: 1 2 3 4 5 6 7 8 9 10 11 12 13 14 15 16 17 18 19 20 21 22 23 24 25 26 27 28 29 30 31 32 33 34 35 36 37 38 39 40 41 42 43 44 45 46 47 48 49 50
000
ASUS45 KBOU 250807
RWRCO

WEATHER ROUNDUP FOR COLORADO
NATIONAL WEATHER SERVICE DENVER/BOULDER CO
200 AM MDT MON MAY 25 2015

NOTE: "FAIR" INDICATES FEW OR NO CLOUDS BELOW 12000 FEET WITH NO
SIGNIFICANT WEATHER AND/OR OBSTRUCTIONS TO VISIBILITY.

COZ001>005-013-030-031-250900-
...NORTHWEST COLORADO...

CITY           SKY/WX    TMP DP  RH WIND       PRES   REMARKS
CRAIG          CLOUDY    43  40  89 CALM      29.97S
HAYDEN         CLOUDY    43  37  81 CALM      29.97S
MEEKER         CLOUDY    41  38  89 CALM      29.98S
MOUNT WERNER   NOT AVBL
STEAMBOAT SPGS MOCLDY    38  37  97 E5        29.97F
WALDEN         CLOUDY    36  34  93 SE5       29.97F
$$

COZ006>008-011-250900-
...WEST CENTRAL VALLEYS...

CITY           SKY/WX    TMP DP  RH WIND       PRES   REMARKS
GRAND JUNCTION LGT RAIN  47  46  97 E8        29.94F
MONTROSE       LGT RAIN  47  45  93 N3        29.97S
EAGLE          MOCLDY    39  37  93 E3        30.00S
RIFLE          CLOUDY    45  41  86 CALM      29.97S
DELTA          TSTM      50  46  84 MISG      29.96S
NUCLA          CLOUDY    46  43  87 NW5       30.00R
$$

COZ017>023-064>068-250900-
...SOUTHWEST COLORADO...

CITY           SKY/WX    TMP DP  RH WIND       PRES   REMARKS
DURANGO        CLOUDY    42  37  82 N3        30.00S
CORTEZ         MOCLDY    45  41  86 NE5       29.97F
PAGOSA SPRINGS CLOUDY    39  39 100 CALM      30.04S
TELLURIDE      CLOUDY    38  34  86 SE3       30.07S
WOLF CREEK PAS NOT AVBL
$$

COZ009-010-012-014-032>034-037-058>063-250900-
...CENTRAL COLORADO...

CITY           SKY/WX    TMP DP  RH WIND       PRES   REMARKS
ASPEN          LGT RAIN  34  33  96 CALM      30.00S
BUENA VISTA    CLOUDY    41  35  77 NW8       29.96S
COPPER MTN     FLURRIES  30  27  86 W21       30.06F WCI  17
BERTHOUD PASS  HVY SNOW  21  14  73 NW16G22   30.06F VSB 1/4 WCI   7
COTTONWOOD PAS CLOUDY    39  32  75 W8        30.02S
GUNNISON       MOCLDY    41  34  75 CALM      30.01F
KREMMLING      CLOUDY    37  34  87 CALM      29.99S
LEADVILLE      LGT SNOW  31  31 100 CALM      30.01S VSB 1
MONARCH PASS   CLOUDY    28  27  93 MISG      30.17S
SALIDA         CLOUDY    47  35  62 W10       30.03R
SUNLIGHT       CLOUDY    32  32 100 W3        30.10S VSB 1/4
WILKERSON PASS FOG       30  30 100 SW7       30.06F VSB 3/4 WCI  23
$$

COZ069>075-250900-
...SAN LUIS VALLEY/SANGRE DE CRISTO MOUNTAINS...

CITY           SKY/WX    TMP DP  RH WIND       PRES   REMARKS
ALAMOSA        CLOUDY    39  35  86 SW3       29.99S
LA VETA PASS   CLOUDY   N/A N/A N/A MISG      30.05F
SAGUACHE       CLOUDY    41  36  81 N9        30.00S
$$

COZ035-036-038>040-250900-
...NORTHERN COLORADO FRONT RANGE...

CITY           SKY/WX    TMP DP  RH WIND       PRES   REMARKS
DENVER INTL AP MOCLDY    44  41  89 W6        29.88S
DMNS CITY PARK   N/A     45  41  84 S2        29.87F
AURORA         MOCLDY    43  42  95 SW6       29.89F
FRONT RANGE AP CLEAR     45  43  93 SW7       29.89S
ERIE MUNI ARPT PTCLDY    44  42  94 S3        29.87S
BOULDER MUN AP PTCLDY    45  43  93 CALM      29.87S
CENTENNIAL     MOCLDY    46  41  82 SW5       29.89F
BROOMFIELD     PTCLDY    45  39  81 W3        29.89S
FORT COLLINS   MOCLDY    48  43  81 CALM      29.89S
LONGMONT       CLOUDY    46  44  91 CALM      29.89S
$$

COZ041-046-047-076>085-087-088-250900-
...PIKES PEAK/PALMER DIVIDE AND SOUTHERN FOOTHILLS...

CITY           SKY/WX    TMP DP  RH WIND       PRES   REMARKS
COLO. SPRINGS  PTCLDY    46  40  79 N7        29.90F
A. F. ACADEMY  CLOUDY    44  40  87 N8        29.90F
ELLICOTT       NOT AVBL
FALCON         CLOUDY    44  39  81 NW9       29.92F
FORT CARSON    PTCLDY    44  41  87 NW10      29.88S
LIMON          CLEAR     41  39  93 W3        29.87S
MONUMENT HILL  NOT AVBL
TRINIDAD       MOCLDY    43  39  86 W8        29.88F
$$

COZ042>045-048>051-090-091-250900-
...NORTHEAST COLORADO...

CITY           SKY/WX    TMP DP  RH WIND       PRES   REMARKS
GREELEY ARPT   MOCLDY    48  43  81 CALM      29.86S
AKRON          CLOUDY    45  44  97 W9        29.82F
BURLINGTON     MOCLDY    48  45  89 W8        29.81F
WRAY           CLOUDY   N/A N/A N/A CALM      29.79F
STERLING       CLOUDY    50  50 100 NW3       29.80F
HOLYOKE        NOT AVBL
FORT MORGAN    CLOUDY    49  46  88 NW3       29.84F
$$

COZ086-089-092>099-250900-
...SOUTHEAST COLORADO...

CITY           SKY/WX    TMP DP  RH WIND       PRES   REMARKS
PUEBLO         CLEAR     46  44  93 NW6       29.86S
LA JUNTA       PTCLDY    48  45  89 W8        29.83F
LAMAR          PTCLDY    46  45  96 SW7       29.80S
SPRINGFIELD      N/A     43  40  89 NW5       29.82S
$$


USA.gov is the U.S. government's official web portal to all federal, state and local government web resources and services.